Regional Weather Roundup
Issued by NWS

Home | Current Version | Previous Version | Text Only | Print | Product List | Glossary Off
Versions: 1 2 3 4 5 6 7 8 9 10 11 12 13 14 15 16 17 18 19 20 21 22 23 24 25 26 27 28 29 30 31 32 33 34 35 36 37 38 39 40 41 42 43 44 45 46 47 48 49 50

000
ASUS43 KIND 051859
RWRIN

WEATHER ROUNDUP FOR INDIANA
NATIONAL WEATHER SERVICE INDIANAPOLIS IN
300 PM EDT SUN JUL 05 2015

NOTE: "FAIR" INDICATES FEW OR NO CLOUDS BELOW 12,000 FEET WITH NO
SIGNIFICANT WEATHER AND/OR OBSTRUCTIONS TO VISIBILITY.

* - STATION DOES NOT REPORT WEATHER SUCH AS PRECIPITATION OR FOG.

+ - STATION NOT QUALITY CONTROLLED BY THE NATIONAL WEATHER SERVICE.
    USE DATA WITH CAUTION...ESPECIALLY DEWPOINT AND RELATIVE
    HUMIDITY OBSERVATIONS.

INZ001>003-010>013-019-020-052000-
NORTHWEST INDIANA

CITY           SKY/WX    TMP DP  RH WIND       PRES   REMARKS
GARY /AIRPORT/ MOSUNNY  N/A N/A N/A CALM      30.08F
MONTICELLO +   SUNNY     80  61  52 S5        30.07F
RENSSELAER +   SUNNY     81  59  47 CALM      30.08F

$$

LMZ046-743>745-052000-
SOUTHERN LAKE MICHIGAN

STATION/POSITION TIME  TEMP    WIND        PRES    WAVE
                       AIR SEA DIR/SP/G            HT
                 (UTC) (F)     (DEG/KT/KT) (MB)    (FT)
BURNS HARBOR     1800   71      40/  8/  8 1019.0F
MICHIGAN CITY    1800   70      20/  5/  6   N/A
5NW MICH CITY    1800   71 68   40/  4/  6   N/A     0

$$

INZ004-005-014>016-021>024-052000-
NORTH CENTRAL INDIANA

CITY           SKY/WX    TMP DP  RH WIND       PRES   REMARKS
ELKHART        MOSUNNY   82  55  39 CALM      30.10F
GOSHEN         SUNNY     80  60  50 SE3       30.10F
SOUTH BEND     SUNNY     82  58  43 VRB3      30.09F

$$

INZ006>009-017-018-025>027-052000-
NORTHEAST INDIANA

CITY           SKY/WX    TMP DP  RH WIND       PRES   REMARKS
ANGOLA *+        N/A     81  75  83 S7        30.11F
FORT WAYNE     CLOUDY    81  58  45 VRB3      30.10F

$$

INZ028-029-035-036-043>045-051>053-052000-
WEST CENTRAL INDIANA

CITY           SKY/WX    TMP DP  RH WIND       PRES   REMARKS
CRAWFORDSVL +  MOSUNNY   78  54  42 CALM      30.08F
GREENCASTLE +  PTSUNNY   81  59  47 SE3       30.09S
LAFAYETTE      MOSUNNY   80  62  54 S3        30.07F
TERRE HAUTE    MOSUNNY   83  65  54 E3        30.07F

$$

INZ030>032-037>040-046>048-054>057-064-065-052000-
CENTRAL INDIANA

CITY           SKY/WX    TMP DP  RH WIND       PRES   REMARKS
FRANKFORT +    SUNNY     82  61  49 MISG      30.10F
GREENWOOD *+   CLOUDY    79  59  50 CALM      30.10S
INDIANAPOLIS   PTSUNNY   79  59  50 E6        30.07F
-EAGLE CREEK   MOSUNNY   79  63  57 E5        30.08S
KOKOMO *+      MOSUNNY   81  61  50 S6        30.08F
MT COMFORT *+  CLOUDY    81  50  34 SE5       30.10S
SHELBYVILLE    CLOUDY    79  64  60 E5        30.09S

$$

INZ033-034-041-042-049-050-058-059-052000-
EAST CENTRAL INDIANA

CITY           SKY/WX    TMP DP  RH WIND       PRES   REMARKS
MUNCIE         PTSUNNY   79  60  52 CALM      30.09F

$$

INZ060-061-067>069-081>083-085>088-052000-
SOUTHWEST INDIANA

CITY           SKY/WX    TMP DP  RH WIND       PRES   REMARKS
EVANSVILLE     PTSUNNY   82  69  64 E3        30.07S
HUNTINGBURG *+ CLOUDY    81  70  69 SE6       30.07F

$$

INZ062-063-066-070>080-084-089>092-052000-
SOUTH CENTRAL AND SOUTHEAST INDIANA

CITY           SKY/WX    TMP DP  RH WIND       PRES   REMARKS
BLOOMINGTON    PTSUNNY   80  62  54 S3        30.08F
MADISON *+     CLOUDY    77  57  50 E5        30.11S
SEYMOUR +      PTSUNNY   81  64  57 SE3       30.08S

$$




USA.gov is the U.S. government's official web portal to all federal, state and local government web resources and services.